Location: Churchill Northern Studies Centre
(58.7378°N, 93.8201°W)
Time: 12:45:24
(UTC-06:00)

N. Korean satellite - Pass Details

Date: 10 October 2017
Orbit: 461 x 513 km, 97.2° (Epoch: 12 December)

Event Time Altitude Azimuth Distance (km) Brightness Sun altitude
Rises 20:03:57 0° 201° (SSW) 2,553 10.4 -14.0°
Reaches altitude 10° 20:06:25 10° 218° (SW) 1,667 9.6 -14.3°
Maximum altitude 20:09:11 21° 269° (W) 1,140 9.4 -14.7°
Drops below altitude 10° 20:11:56 10° 319° (NW) 1,656 10.0 -15.0°
Sets 20:14:22 0° 337° (NNW) 2,531 10.7 -15.3°
